Regional Weather Roundup
Issued by NWS Columbia, SC

Current Version | Previous Version | Text Only | Print | Product List | Glossary On
Versions: 1 2 3 4 5 6 7 8 9 10 11 12 13 14 15 16 17 18 19 20 21 22 23 24 25 26 27 28 29 30 31 32 33 34 35 36 37 38 39 40 41 42 43 44 45 46 47 48 49 50
000
ASUS42 KCAE 050510
RWRCAE
REGIONAL WEATHER ROUNDUP
NATIONAL WEATHER SERVICE COLUMBIA SC
100 AM EDT TUE MAY 05 2015

NOTE: "FAIR" INDICATES FEW OR NO CLOUDS BELOW 12,000 FEET WITH NO
SIGNIFICANT WEATHER AND/OR OBSTRUCTIONS TO VISIBILITY.

NOT ALL STATIONS ARE QUALITY CONTROLLED BY THE NATIONAL
WEATHER SERVICE. USE DATA WITH CAUTION...ESPECIALLY
DEWPOINT OBSERVATIONS.

SCZ001>056-GAZ040-063>065-077-050600-
...UPSTATE SOUTH CAROLINA...

CITY           SKY/WX    TMP DP  RH WIND       PRES   REMARKS
ANDERSON       PTCLDY    64  55  72 S3        30.32R
LIBERTY        CLOUDY    62  57  83 SW3       30.32R
SPARTANBURG    PTCLDY    64  55  72 CALM      30.32S
CLEMSON        PTCLDY    68  55  63 VRB3      30.33R
GREENVILLE     CLOUDY    67  53  61 S7        30.33S
GREENWOOD      CLEAR     63  55  75 S6        30.34R
GREER          MOCLDY    65  55  70 S9        30.32R
ROCK HILL      CLEAR     60  55  83 SW6       30.34R
CHESTER        CLEAR     64  54  68 S3        30.34S
LAURENS        CLEAR     63  59  88 S7        30.33R


...CENTRAL SOUTH CAROLINA...

CITY           SKY/WX    TMP DP  RH WIND       PRES   REMARKS
COLUMBIA APT   CLEAR     63  55  75 CALM      30.33S
COLUMBIA OWENS CLEAR     63  56  78 CALM      30.35R
DARLINGTON     CLEAR     61  52  72 S5        30.35S
FLORENCE       CLEAR     61  55  81 CALM      30.34S
ORANGEBURG     CLEAR     57  54  89 CALM      30.34R
SUMTER SHAW    CLEAR     61  56  82 CALM      30.33R
NEWBERRY       CLEAR     63  54  72 S3        30.36S
AIKEN          FAIR      59  50  72 CALM      30.37S
BARNWELL       FAIR      57  55  94 CALM      30.34S
MANNING        FAIR      54  52  94 CALM      30.34S
CAMDEN         FAIR      61  55  82 CALM      30.35S
LANCASTER      CLEAR     63  59  88 CALM      30.34S
WINNSBORO      CLEAR     63  55  77 S6        30.34S


...EASTERN AND COASTAL SOUTH CAROLINA...

CITY           SKY/WX    TMP DP  RH WIND       PRES   REMARKS
MYRTLE BEACH     N/A     63  55  77 CALM      30.37R
N MYRTLE BCH   CLEAR     59  56  89 CALM      30.34S
CONWAY         FAIR      54  54 100 CALM      30.35S
MARION         FAIR      57  55  94 CALM      30.35S
HARTSVILLE     FAIR      59  54  82 CALM      30.35S
FLORENCE       CLEAR     61  55  81 CALM      30.34S
DARLINGTON     CLEAR     61  52  72 S5        30.35S
CHARLESTON APT PTCLDY    59  56  89 N3        30.33S
MOUNT PLEASANT FAIR      59  57  94 MISG      30.33S
WALTERBORO     CLEAR     57  54  88 E5        30.33S
BEAUFORT       CLEAR     64  61  90 NE3       30.31S


...EASTERN GEORGIA...

CITY           SKY/WX    TMP DP  RH WIND       PRES   REMARKS
AUGUSTA BUSH F CLEAR     57  55  93 CALM      30.32S
AUGUSTA DANIEL CLEAR     65  55  70 SE5       30.33S
THOMSON        CLEAR     65  58  78 CALM      30.36S
WASHINGTON     FAIR      64  61  88 SE3       30.32S
CLAXTON        FAIR      55  55 100 CALM      30.31S
SYLVANIA       CLEAR     58  57  99 CALM      30.32S
STATESBORO       N/A     56  56 100 CALM      30.31S
SAVANNAH       CLEAR     60  57  89 CALM      30.31S


...SOUTHERN NORTH CAROLINA...

CITY           SKY/WX    TMP DP  RH WIND       PRES   REMARKS
CHARLOTTE      PTCLDY    64  53  67 S8        30.34R
MONROE         CLEAR     64  54  69 S6        30.33R
WADESBORO      CLEAR     64  54  68 CALM      30.33S
ROCKINGHAM     CLEAR     63  54  73 S3        30.34S
RUTHERFORDTON  CLOUDY    62  54  74 CALM      30.34R
ASHEVILLE      CLOUDY    63  50  62 SE5       30.36R

$$


USA.gov is the U.S. government's official web portal to all federal, state and local government web resources and services.